STARLINK-4726, 53802

Orbit data source: Space-Track

STARLINK-4726, 53802 is a payload satellite owned by SpaceX/Seattle (US) in LEO that was launched on Sun, 11 Sep 2022 UTC via an FALCON 9 launch vehicle from the Air Force Eastern Test Range (AFETR). Payload-class satellites include a variety of spacecraft equipped with specific instruments for various scientific and technological missions. These include communications satellites like Starlink; space stations such as the ISS; scientific satellites like the Hubble; Earth observation satellites from companies like Planet Labs, Umbra, and HawkEye 360; GPS; miniature CubeSats for education and research; and military/defense satellites.

Loading next visibility...
Identifier
53802, 2022-111AF
Orbit
LEO
Country
Flag of USUS
Related business
Manufacturer
SpaceX/Seattle
Mission
Operational Commercial Communications
Bus & Motor
STARLINK, Unknown motor
Mass
305 kg wet, ~290 kg dry
Launch date (UTC)
2022-09-11 (3 years ago)
Launch vehicle
FALCON 9
Launch site
Air Force Eastern Test Range (AFETR)
Object type
Payload
Rocket body
Debris
Shape & HBR
Box + 1 Pan, 4.4 m
Radar Cross Section
13.562 m², Large (>1 m²)

Expand to show TLE details & history
Last TLE update: 11 hours ago

TLE from 11 hours ago
0 STARLINK-4726
1 53802U 22111AF  25258.18906310  .00001820  00000-0  13238-3 0  9996
2 53802  53.2178 331.8446 0001131  88.7434 271.3688 15.08842028167327
Epoch: 2025-09-15T04:32Z
TLE epoch observation values (Epoch: 2025-09-15T04:32:15.051Z)
Latitude
-0.00002°
Longitude
-90.61542°
Altitude
540.616 km
Speed
7.593 km/s
True Right ascension
22h 07m 22s
True Declination
0° 00' 00"
Sunlit
Object was in full shadow at epoch
Visualization orbit readout
Latitude
Unknown
Longitude
Unknown
Altitude
Unknown
Speed
Unknown
Apparent Right ascension
Unknown
Apparent Declination
Unknown
Sunlit
N/A
Visualization observer readout
Local Sidereal Time
08:27:12
Azimuth
Unknown
Elevation
Unknown
Doppler factor
Unknown
Orbital elements
Apogee altitude
540.765 km
Perigee altitude
539.2 km
Semi-major axis
6,918.119 km
Eccentricity
0.00011
Inclination
53.2178°
RAAN
331.8446°
Arg. of periapsis
88.7434°
True anomaly
271.35584°
Mean anomaly
271.3688°
Eccentric anomaly
271.36232°
Mean motion
3.77191 °/min
Orbital period
95.44 mins
BSTAR
0.00013238
Loading maneuver chart data...
Computing Atmospheric mass density...
Loading historical data...
Loading historical data...
Loading historical data...
Loading historical data...
Loading historical data...
Loading historical data...
Loading historical data...

Documentation

Showing up to 5 results
|